When you browse on this site, cookies collect data to enhance your experience and personalize the content and advertising you see.
Visit our Privacy Policy to learn more. By continuing to use the site, you agree to this use of cookies and data.
  • In Latvia
  • List of Countries
  • For 7 days
  • Water Temperature
  • Weather Map
  • Weather Widgets
  • user-avatar
    Login

    Hourly Weather Zhdanov

    Today, 31 May, Sunday

    Time Temperature Precipitation Wind Pressure Humidity
    00:00 +15°C° 0 mm 5 mps 755 mmHg 88%
    01:00 +15°C° 0 mm 5 mps 755 mmHg 88%
    02:00 +14°C° 0 mm 5 mps 756 mmHg 88%
    03:00 +14°C° 0 mm 6 mps 755 mmHg 88%
    04:00 +15°C° 0 mm 6 mps 755 mmHg 86%
    05:00 +15°C° 0 mm 6 mps 755 mmHg 83%
    06:00 +15°C° 0 mm 6 mps 755 mmHg 81%
    07:00 +16°C° 0 mm 6 mps 755 mmHg 77%
    08:00 +17°C° 0 mm 5 mps 755 mmHg 73%
    09:00 +19°C° 0 mm 5 mps 755 mmHg 69%
    10:00 +20°C° 0 mm 6 mps 755 mmHg 67%
    11:00 +20°C° 0 mm 7 mps 755 mmHg 64%
    12:00 +21°C° 0 mm 7 mps 755 mmHg 61%
    13:00 +21°C° 0 mm 7 mps 755 mmHg 60%
    14:00 +21°C° 0 mm 7 mps 755 mmHg 59%
    15:00 +21°C° 0 mm 7 mps 755 mmHg 58%
    16:00 +21°C° 0 mm 7 mps 755 mmHg 62%
    17:00 +20°C° 0 mm 6 mps 754 mmHg 65%
    18:00 +20°C° 0 mm 6 mps 754 mmHg 68%
    19:00 +19°C° 0 mm 6 mps 754 mmHg 71%
    20:00 +17°C° 0 mm 5 mps 755 mmHg 74%
    21:00 +15°C° 0 mm 5 mps 755 mmHg 78%
    22:00 +15°C° 0 mm 5 mps 755 mmHg 79%
    23:00 +15°C° 0 mm 5 mps 755 mmHg 79%

    Tomorrow, 1 June, Monday

    Time Temperature Precipitation Wind Pressure Humidity
    00:00 +14°C° 0 mm 5 mps 755 mmHg 80%
    01:00 +14°C° 0 mm 5 mps 755 mmHg 82%
    02:00 +14°C° 0 mm 4 mps 755 mmHg 84%
    03:00 +13°C° 0 mm 4 mps 755 mmHg 85%
    04:00 +14°C° 0 mm 4 mps 755 mmHg 84%
    05:00 +14°C° 0 mm 4 mps 755 mmHg 83%
    06:00 +15°C° 0 mm 4 mps 755 mmHg 82%
    07:00 +16°C° 0 mm 5 mps 755 mmHg 77%
    08:00 +19°C° 0 mm 5 mps 755 mmHg 72%
    09:00 +20°C° 0 mm 5 mps 756 mmHg 67%
    10:00 +21°C° 0 mm 5 mps 756 mmHg 64%
    11:00 +21°C° 0 mm 5 mps 756 mmHg 60%
    12:00 +22°C° 0 mm 5 mps 756 mmHg 57%
    13:00 +23°C° 0.1 mm 5 mps 756 mmHg 56%
    14:00 +23°C° 0.1 mm 4 mps 756 mmHg 55%
    15:00 +23°C° 0.1 mm 4 mps 756 mmHg 55%
    16:00 +24°C° 0.1 mm 3 mps 756 mmHg 57%
    17:00 +24°C° 0.1 mm 2 mps 755 mmHg 59%
    18:00 +23°C° 0.1 mm 1 mps 755 mmHg 62%
    19:00 +22°C° 0.2 mm 1 mps 756 mmHg 65%
    20:00 +20°C° 0.2 mm 1 mps 756 mmHg 68%
    21:00 +19°C° 0.2 mm 1 mps 756 mmHg 71%
    22:00 +19°C° 0.1 mm 1 mps 756 mmHg 73%
    23:00 +17°C° 0.1 mm 2 mps 756 mmHg 75%

    Day after tomorrow, 2 June, Tuesday

    Time Temperature Precipitation Wind Pressure Humidity
    00:00 +17°C° 0.1 mm 2 mps 756 mmHg 77%
    01:00 +17°C° 0 mm 2 mps 756 mmHg 79%
    02:00 +16°C° 0 mm 1 mps 756 mmHg 81%
    03:00 +16°C° 0 mm 1 mps 756 mmHg 83%
    04:00 +16°C° 2.2 mm 1 mps 755 mmHg 88%
    05:00 +15°C° 2.2 mm 2 mps 755 mmHg 92%
    06:00 +15°C° 2.2 mm 2 mps 755 mmHg 97%
    07:00 +16°C° 0.5 mm 2 mps 755 mmHg 93%
    08:00 +17°C° 0.5 mm 3 mps 755 mmHg 89%
    09:00 +18°C° 0.5 mm 4 mps 756 mmHg 85%
    10:00 +19°C° 0 mm 4 mps 755 mmHg 79%
    11:00 +20°C° 0 mm 5 mps 755 mmHg 72%
    12:00 +22°C° 0 mm 5 mps 755 mmHg 66%
    13:00 +22°C° 0.1 mm 5 mps 755 mmHg 64%
    14:00 +22°C° 0.1 mm 5 mps 755 mmHg 62%
    15:00 +22°C° 0.1 mm 5 mps 755 mmHg 61%
    16:00 +22°C° 0 mm 5 mps 755 mmHg 65%
    17:00 +21°C° 0 mm 4 mps 755 mmHg 68%
    18:00 +20°C° 0 mm 3 mps 754 mmHg 72%
    19:00 +19°C° 0 mm 3 mps 755 mmHg 75%
    20:00 +18°C° 0 mm 3 mps 755 mmHg 77%
    21:00 +17°C° 0 mm 3 mps 755 mmHg 79%
    22:00 +17°C° 0 mm 3 mps 755 mmHg 83%
    23:00 +16°C° 0 mm 2 mps 755 mmHg 86%

    3 June, Wednesday

    Time Temperature Precipitation Wind Pressure Humidity
    00:00 +16°C° 0 mm 2 mps 755 mmHg 89%
    01:00 +16°C° 0 mm 2 mps 755 mmHg 91%
    02:00 +16°C° 0 mm 2 mps 755 mmHg 92%
    03:00 +15°C° 0 mm 2 mps 755 mmHg 94%
    04:00 +16°C° 0 mm 3 mps 754 mmHg 93%
    05:00 +16°C° 0 mm 3 mps 754 mmHg 92%
    06:00 +17°C° 0 mm 3 mps 754 mmHg 92%
    07:00 +17°C° 0 mm 3 mps 754 mmHg 88%
    08:00 +18°C° 0 mm 3 mps 754 mmHg 85%
    09:00 +19°C° 0 mm 4 mps 754 mmHg 81%
    10:00 +21°C° 0 mm 4 mps 754 mmHg 77%
    11:00 +22°C° 0 mm 5 mps 753 mmHg 73%
    12:00 +23°C° 0 mm 6 mps 753 mmHg 69%
    13:00 +24°C° 0.1 mm 6 mps 753 mmHg 67%
    14:00 +26°C° 0.1 mm 6 mps 753 mmHg 64%
    15:00 +26°C° 0.1 mm 6 mps 752 mmHg 62%
    16:00 +26°C° 0.6 mm 6 mps 752 mmHg 65%
    17:00 +24°C° 0.6 mm 7 mps 752 mmHg 69%
    18:00 +23°C° 0.6 mm 7 mps 751 mmHg 72%
    19:00 +22°C° 0.8 mm 7 mps 751 mmHg 77%
    20:00 +21°C° 0.8 mm 7 mps 752 mmHg 83%
    21:00 +18°C° 0.8 mm 7 mps 752 mmHg 88%
    22:00 +18°C° 0.4 mm 7 mps 752 mmHg 89%
    23:00 +17°C° 0.4 mm 6 mps 752 mmHg 90%

    4 June, Thursday

    Time Temperature Precipitation Wind Pressure Humidity
    00:00 +17°C° 0.4 mm 6 mps 752 mmHg 90%
    01:00 +17°C° 0.5 mm 5 mps 752 mmHg 92%
    02:00 +17°C° 0.5 mm 4 mps 752 mmHg 93%
    03:00 +17°C° 0.5 mm 3 mps 752 mmHg 95%
    04:00 +17°C° 0.5 mm 3 mps 752 mmHg 94%
    05:00 +17°C° 0.5 mm 3 mps 752 mmHg 93%
    06:00 +18°C° 0.5 mm 3 mps 752 mmHg 91%
    07:00 +19°C° 0.6 mm 3 mps 753 mmHg 88%
    08:00 +20°C° 0.6 mm 2 mps 753 mmHg 84%
    09:00 +21°C° 0.6 mm 2 mps 753 mmHg 80%
    10:00 +21°C° 0 mm 2 mps 753 mmHg 79%
    11:00 +23°C° 0 mm 2 mps 753 mmHg 78%
    12:00 +23°C° 0 mm 1 mps 753 mmHg 76%
    13:00 +23°C° 0.4 mm 2 mps 753 mmHg 78%
    14:00 +21°C° 0.4 mm 2 mps 753 mmHg 80%
    15:00 +21°C° 0.4 mm 3 mps 753 mmHg 81%
    16:00 +21°C° 0.8 mm 3 mps 754 mmHg 82%
    17:00 +20°C° 0.8 mm 3 mps 754 mmHg 83%
    18:00 +20°C° 0.8 mm 3 mps 754 mmHg 84%
    19:00 +19°C° 0.7 mm 3 mps 754 mmHg 87%
    20:00 +18°C° 0.7 mm 3 mps 755 mmHg 89%
    21:00 +18°C° 0.7 mm 2 mps 755 mmHg 91%
    22:00 +17°C° 0 mm 2 mps 755 mmHg 91%
    23:00 +17°C° 0 mm 2 mps 755 mmHg 92%

    5 June, Friday

    Time Temperature Precipitation Wind Pressure Humidity
    00:00 +16°C° 0 mm 2 mps 756 mmHg 92%
    01:00 +16°C° 0 mm 2 mps 756 mmHg 93%
    02:00 +16°C° 0 mm 2 mps 756 mmHg 93%
    03:00 +16°C° 0 mm 2 mps 756 mmHg 93%
    04:00 +16°C° 0 mm 3 mps 756 mmHg 91%
    05:00 +17°C° 0 mm 3 mps 756 mmHg 88%
    06:00 +17°C° 0 mm 3 mps 756 mmHg 86%
    07:00 +18°C° 0 mm 3 mps 757 mmHg 81%
    08:00 +20°C° 0 mm 3 mps 757 mmHg 77%
    09:00 +21°C° 0 mm 3 mps 757 mmHg 73%
    10:00 +21°C° 0 mm 3 mps 757 mmHg 67%
    11:00 +22°C° 0 mm 3 mps 757 mmHg 61%
    12:00 +24°C° 0 mm 3 mps 757 mmHg 56%
    13:00 +24°C° 0 mm 3 mps 757 mmHg 55%
    14:00 +24°C° 0 mm 3 mps 757 mmHg 54%
    15:00 +24°C° 0 mm 3 mps 757 mmHg 54%
    16:00 +24°C° 0.1 mm 3 mps 757 mmHg 59%
    17:00 +22°C° 0.1 mm 3 mps 757 mmHg 65%
    18:00 +21°C° 0.1 mm 3 mps 758 mmHg 70%
    19:00 +20°C° 0 mm 2 mps 758 mmHg 73%
    20:00 +19°C° 0 mm 2 mps 758 mmHg 75%
    21:00 +18°C° 0 mm 2 mps 758 mmHg 78%
    22:00 +17°C° 0 mm 2 mps 758 mmHg 80%
    23:00 +17°C° 0 mm 2 mps 758 mmHg 81%
    Show more